Meteo pe oră la Almonacid

Astăzi, 16 Ianuarie, Sâmbătă

Timp Temperatura Precipitaţii Vânt Presiune Umiditate
00:00 0°C° 0 mm 10 m/s 716 mmHg 79%
01:00 -1°C° 0 mm 9 m/s 716 mmHg 78%
02:00 -1°C° 0 mm 9 m/s 716 mmHg 78%
03:00 -1°C° 0 mm 8 m/s 716 mmHg 77%
04:00 -1°C° 0 mm 7 m/s 716 mmHg 77%
05:00 -2°C° 0 mm 6 m/s 716 mmHg 77%
06:00 -2°C° 0 mm 6 m/s 717 mmHg 77%
07:00 -1°C° 0 mm 6 m/s 717 mmHg 75%
08:00 -1°C° 0 mm 6 m/s 717 mmHg 73%
09:00 +1°C° 0 mm 6 m/s 718 mmHg 70%
10:00 +2°C° 0 mm 6 m/s 717 mmHg 69%
11:00 +3°C° 0 mm 6 m/s 717 mmHg 67%
12:00 +4°C° 0 mm 6 m/s 718 mmHg 64%
13:00 +6°C° 0 mm 5 m/s 717 mmHg 62%
14:00 +6°C° 0 mm 5 m/s 717 mmHg 60%
15:00 +6°C° 0 mm 5 m/s 717 mmHg 58%
16:00 +6°C° 0 mm 5 m/s 717 mmHg 57%
17:00 +5°C° 0 mm 5 m/s 718 mmHg 56%
18:00 +3°C° 0 mm 5 m/s 718 mmHg 55%
19:00 +3°C° 0 mm 5 m/s 718 mmHg 55%
20:00 +2°C° 0 mm 5 m/s 718 mmHg 55%
21:00 +3°C° 0 mm 4 m/s 718 mmHg 55%
22:00 +3°C° 0 mm 4 m/s 718 mmHg 56%
23:00 +3°C° 0 mm 4 m/s 718 mmHg 56%

Mâine, 17 Ianuarie, Duminică

Timp Temperatura Precipitaţii Vânt Presiune Umiditate
00:00 +1°C° 0 mm 4 m/s 718 mmHg 57%
01:00 +1°C° 0 mm 5 m/s 718 mmHg 56%
02:00 +1°C° 0 mm 5 m/s 718 mmHg 55%
03:00 +1°C° 0 mm 5 m/s 718 mmHg 54%
04:00 +1°C° 0 mm 5 m/s 718 mmHg 53%
05:00 +1°C° 0 mm 5 m/s 717 mmHg 52%
06:00 +1°C° 0 mm 5 m/s 717 mmHg 52%
07:00 +1°C° 0 mm 5 m/s 718 mmHg 54%
08:00 +2°C° 0 mm 5 m/s 718 mmHg 55%
09:00 +3°C° 0 mm 5 m/s 718 mmHg 57%
10:00 +4°C° 0 mm 6 m/s 718 mmHg 59%
11:00 +6°C° 0 mm 7 m/s 718 mmHg 61%
12:00 +7°C° 0 mm 8 m/s 718 mmHg 63%
13:00 +7°C° 0 mm 8 m/s 717 mmHg 65%
14:00 +7°C° 0 mm 8 m/s 717 mmHg 67%
15:00 +7°C° 0 mm 8 m/s 716 mmHg 68%
16:00 +6°C° 0 mm 7 m/s 717 mmHg 71%
17:00 +5°C° 0 mm 7 m/s 717 mmHg 74%
18:00 +4°C° 0 mm 6 m/s 717 mmHg 77%
19:00 +4°C° 0 mm 6 m/s 717 mmHg 79%
20:00 +4°C° 0 mm 6 m/s 717 mmHg 80%
21:00 +4°C° 0 mm 6 m/s 718 mmHg 81%
22:00 +4°C° 0 mm 6 m/s 718 mmHg 83%
23:00 +3°C° 0 mm 6 m/s 718 mmHg 84%

Poimâine, 18 Ianuarie, Luni

Timp Temperatura Precipitaţii Vânt Presiune Umiditate
00:00 +3°C° 0 mm 5 m/s 718 mmHg 85%
01:00 +3°C° 0 mm 5 m/s 718 mmHg 86%
02:00 +4°C° 0 mm 4 m/s 718 mmHg 86%
03:00 +3°C° 0 mm 4 m/s 717 mmHg 87%
04:00 +3°C° 0 mm 4 m/s 717 mmHg 86%
05:00 +3°C° 0 mm 3 m/s 717 mmHg 86%
06:00 +3°C° 0 mm 3 m/s 717 mmHg 85%
07:00 +3°C° 0 mm 3 m/s 718 mmHg 84%
08:00 +4°C° 0 mm 3 m/s 718 mmHg 83%
09:00 +5°C° 0 mm 3 m/s 718 mmHg 81%
10:00 +7°C° 0 mm 3 m/s 718 mmHg 78%
11:00 +7°C° 0 mm 4 m/s 718 mmHg 74%
12:00 +8°C° 0 mm 4 m/s 718 mmHg 70%
13:00 +8°C° 0 mm 4 m/s 718 mmHg 69%
14:00 +10°C° 0 mm 4 m/s 717 mmHg 69%
15:00 +10°C° 0 mm 4 m/s 717 mmHg 68%
16:00 +7°C° 0 mm 4 m/s 717 mmHg 73%
17:00 +7°C° 0 mm 3 m/s 717 mmHg 78%
18:00 +4°C° 0 mm 3 m/s 717 mmHg 82%
19:00 +4°C° 0 mm 3 m/s 717 mmHg 83%
20:00 +4°C° 0 mm 3 m/s 717 mmHg 83%
21:00 +3°C° 0 mm 3 m/s 717 mmHg 84%
22:00 +4°C° 0 mm 2 m/s 717 mmHg 85%
23:00 +4°C° 0 mm 2 m/s 717 mmHg 86%

19 Ianuarie, Marţi

Timp Temperatura Precipitaţii Vânt Presiune Umiditate
00:00 +3°C° 0 mm 2 m/s 717 mmHg 87%
01:00 +3°C° 0 mm 2 m/s 717 mmHg 87%
02:00 +3°C° 0 mm 2 m/s 716 mmHg 86%
03:00 +4°C° 0 mm 1 m/s 716 mmHg 85%
04:00 +2°C° 0 mm 2 m/s 716 mmHg 84%
05:00 +2°C° 0 mm 2 m/s 716 mmHg 83%
06:00 +2°C° 0 mm 2 m/s 715 mmHg 82%
07:00 +3°C° 0 mm 2 m/s 715 mmHg 78%
08:00 +4°C° 0 mm 2 m/s 716 mmHg 74%
09:00 +5°C° 0 mm 2 m/s 716 mmHg 70%
10:00 +6°C° 0 mm 2 m/s 715 mmHg 65%
11:00 +8°C° 0 mm 2 m/s 715 mmHg 59%
12:00 +9°C° 0 mm 2 m/s 715 mmHg 54%
13:00 +9°C° 0 mm 2 m/s 714 mmHg 54%
14:00 +10°C° 0 mm 2 m/s 714 mmHg 55%
15:00 +10°C° 0 mm 2 m/s 713 mmHg 55%
16:00 +9°C° 0 mm 2 m/s 713 mmHg 60%
17:00 +7°C° 0 mm 2 m/s 713 mmHg 65%
18:00 +5°C° 0 mm 3 m/s 713 mmHg 71%
19:00 +4°C° 0 mm 3 m/s 713 mmHg 70%
20:00 +4°C° 0 mm 3 m/s 713 mmHg 69%
21:00 +4°C° 0 mm 3 m/s 712 mmHg 68%
22:00 +3°C° 0 mm 3 m/s 712 mmHg 69%
23:00 +3°C° 0 mm 3 m/s 712 mmHg 71%

20 Ianuarie, Miercuri

Timp Temperatura Precipitaţii Vânt Presiune Umiditate
00:00 +3°C° 0 mm 3 m/s 711 mmHg 72%
01:00 +3°C° 0 mm 3 m/s 711 mmHg 73%
02:00 +3°C° 0 mm 3 m/s 710 mmHg 73%
03:00 +2°C° 0 mm 3 m/s 709 mmHg 74%
04:00 +2°C° 0 mm 3 m/s 709 mmHg 75%
05:00 +2°C° 0 mm 3 m/s 709 mmHg 76%
06:00 +2°C° 0 mm 3 m/s 708 mmHg 77%
07:00 +3°C° 0 mm 3 m/s 708 mmHg 76%
08:00 +4°C° 0 mm 3 m/s 708 mmHg 75%
09:00 +5°C° 0 mm 4 m/s 708 mmHg 74%
10:00 +5°C° 0 mm 5 m/s 707 mmHg 72%
11:00 +5°C° 0 mm 6 m/s 706 mmHg 70%
12:00 +6°C° 0 mm 7 m/s 706 mmHg 68%
13:00 +8°C° 0 mm 7 m/s 705 mmHg 69%
14:00 +8°C° 0 mm 7 m/s 705 mmHg 69%
15:00 +9°C° 0 mm 6 m/s 704 mmHg 69%
16:00 +8°C° 0 mm 6 m/s 704 mmHg 71%
17:00 +7°C° 0 mm 6 m/s 704 mmHg 73%
18:00 +5°C° 0 mm 6 m/s 704 mmHg 75%
19:00 +7°C° 0 mm 6 m/s 704 mmHg 75%
20:00 +7°C° 0 mm 6 m/s 704 mmHg 75%
21:00 +7°C° 0 mm 6 m/s 704 mmHg 74%
22:00 +7°C° 0 mm 6 m/s 704 mmHg 75%
23:00 +6°C° 0 mm 7 m/s 704 mmHg 75%

21 Ianuarie, Joi

Timp Temperatura Precipitaţii Vânt Presiune Umiditate
00:00 +6°C° 0 mm 8 m/s 705 mmHg 75%
01:00 +6°C° 0 mm 8 m/s 705 mmHg 75%
02:00 +6°C° 0 mm 8 m/s 705 mmHg 75%
03:00 +6°C° 0 mm 8 m/s 705 mmHg 75%
04:00 +6°C° 0 mm 8 m/s 706 mmHg 75%
05:00 +6°C° 0 mm 8 m/s 706 mmHg 75%
06:00 +6°C° 0 mm 7 m/s 706 mmHg 75%
07:00 +6°C° 0 mm 7 m/s 706 mmHg 75%
08:00 +7°C° 0 mm 6 m/s 707 mmHg 75%
09:00 +7°C° 0 mm 6 m/s 707 mmHg 75%
10:00 +8°C° 0 mm 6 m/s 707 mmHg 70%
11:00 +9°C° 0 mm 7 m/s 708 mmHg 64%
12:00 +11°C° 0 mm 8 m/s 708 mmHg 59%
13:00 +10°C° 0 mm 7 m/s 707 mmHg 62%
14:00 +10°C° 0 mm 6 m/s 707 mmHg 64%
15:00 +11°C° 0 mm 4 m/s 706 mmHg 67%
16:00 +9°C° 0 mm 5 m/s 706 mmHg 69%
17:00 +9°C° 0 mm 6 m/s 706 mmHg 71%
18:00 +8°C° 0 mm 6 m/s 706 mmHg 73%
19:00 +8°C° 0 mm 7 m/s 706 mmHg 72%
20:00 +7°C° 0 mm 8 m/s 705 mmHg 71%
21:00 +7°C° 0 mm 9 m/s 705 mmHg 71%
22:00 +7°C° 0 mm 10 m/s 705 mmHg 70%
23:00 +7°C° 0 mm 10 m/s 705 mmHg 69%
Arată mai mult

Formular de consimțământ

Meteoprog și furnizorii noștri de servicii pot stoca și accesa date personale, precum cookies, identificatori de dispozitiv sau alte tehnologii similare pe dispozitivul dumneavoastră și procesa astfel de date pentru a personaliza conținutul și reclamele, dar și pentru a oferi caracteristici de social media și pentru a analiza traficul.

  • Stocarea și/sau accesarea informațiilor pe dispozitivul dumneavoastră

    Cookies, identificatori de dispozitiv sau alte informații pot fi stocate sau accesate pe dispozitiv în scopurile indicate mai sus.

  • Reclame și conținut personalizat, evaluarea reclamelor și a conținutului, informații despre audiențe și dezvoltarea produselor

    Reclamele și conținutul pot fi personalizate pe baza unui profil. Pot fi adăugate date suplimentare pentru a personaliza mai bine reclamele și conținutul. Performanța reclamelor și conținutului poate fi măsurată. Pot fi obținute informații despre utilizatorii care au văzut reclamele și conținutul. Aceste date pot fi utilizate pentru a dezvolta sau îmbunătăți experiența utilizatorilor, sistemele și software-ul.

Dând clic pe ‘Sunt de acord’, permiteți utilizarea cookie-urilor menționate, a identificatorilor de dispozitiv, balizelor web sau altor tehnologii similare. Setările pot fi modificate din browser-ul dispozitivului dumneavoastră.

În anumite scopuri, interesele legitime pot prima asupra consimțământului. Puteți citi mai multe informații în acest sens în Politica privind Confidențialitatea Datelor și Cookie.